Wind_Speed
12 11 11 11 10 8 6 5 4 3 3 3 3 3 3 3 4 5 6 7 7 8 9 9 10 11 12 12 13 14 15 16 17 18 19 19 20 21 21 21 21 21 21 22 22 22 22 22 22 22 22 23 23 24 24 24 24 25 26 27 28 29 29 30 31 31 31 31 31
12 11 10 9 8 6 5 4 3 3 3 3 3 3 3 4 5 6 7 8 8 9 9 10 11 12 13 14 15 16 17 18 19 20 20 21 22 22 21 22 22 21 21 21 22 22 22 22 22 22 23 23 23 24 24 24 24 25 26 27 28 29 29 30 31 32 32 32 32
11 10 9 7 5 4 4 3 3 3 3 2 2 3 4 5 6 7 8 8 9 10 11 11 12 13 13 15 16 17 18 19 20 21 22 22 23 23 23 23 23 22 22 22 22 22 22 22 23 23 23 23 23 24 24 25 25 25 26 27 27 27 28 29 29 30 30 31 31
10 9 7 6 5 4 3 3 2 2 2 2 3 4 6 6 7 8 8 9 10 11 11 12 13 13 14 15 17 18 19 20 21 22 22 23 23 23 23 23 23 23 23 23 23 23 24 24 24 24 24 24 25 25 25 25 25 25 26 26 26 26 27 27 28 28 28 29 30
9 7 6 5 4 3 3 2 2 2 3 4 5 6 6 7 7 8 9 10 11 12 13 14 14 15 15 17 18 20 20 21 21 22 22 22 23 23 23 23 23 24 24 24 24 24 25 25 25 25 25 25 25 25 26 26 26 26 26 26 25 26 26 27 27 27 27 28 29
7 6 5 5 4 3 2 3 4 5 6 7 7 7 7 8 9 10 11 12 13 14 15 16 16 16 17 18 19 20 21 21 21 21 22 22 22 23 23 23 24 24 24 24 25 25 25 26 25 25 25 25 26 26 26 26 26 27 26 26 26 25 26 26 26 26 27 28 28
6 5 4 3 2 2 2 4 5 6 7 7 8 8 9 10 11 12 13 14 16 16 17 17 17 17 18 19 19 20 20 21 21 21 22 22 23 23 23 24 24 25 25 25 26 26 26 26 26 26 26 26 26 26 26 26 26 27 27 26 26 25 25 26 26 26 26 27 28
5 4 3 2 1 2 3 4 5 5 6 7 8 9 11 12 13 14 15 16 16 16 17 17 17 18 19 19 20 20 21 21 21 22 22 22 23 24 24 24 25 25 26 26 26 26 26 26 26 26 26 25 25 26 26 26 26 27 27 27 27 26 26 26 26 26 26 27 28
4 3 2 1 1 3 4 5 6 7 8 9 10 11 12 13 13 14 15 15 16 16 17 17 18 19 19 20 20 21 21 21 21 22 22 22 23 24 24 24 25 25 25 25 26 26 26 26 26 26 26 26 26 26 26 26 26 27 28 28 28 28 27 27 27 27 27 28 28
2 2 1 1 2 4 5 6 7 8 9 10 11 12 12 13 14 14 15 15 16 16 17 18 18 19 19 20 20 20 21 21 21 22 22 22 23 23 24 24 24 25 25 25 25 25 26 26 26 26 27 27 27 28 28 27 28 28 28 28 28 29 29 29 29 29 29 29 29
0 1 2 3 4 5 6 7 7 8 9 10 11 12 13 13 14 15 15 16 16 17 18 18 19 19 20 20 20 21 21 21 21 22 22 23 23 24 24 25 25 25 26 26 25 25 25 25 26 27 28 28 28 29 29 29 29 30 30 30 30 30 30 31 31 30 30 30 30
2 4 5 6 6 6 6 7 8 9 10 11 12 12 13 14 15 15 16 17 17 18 19 19 19 19 20 20 20 21 21 21 22 22 23 23 24 24 25 25 26 26 26 26 26 25 25 26 26 27 28 29 28 28 29 29 29 30 30 31 31 31 32 32 32 31 31 31 31
6 7 7 6 6 6 7 7 8 9 10 11 12 13 13 14 15 16 16 17 18 18 19 19 19 19 20 20 20 21 21 21 22 22 23 24 24 25 25 26 26 26 26 26 25 25 25 26 26 27 28 29 28 28 29 29 29 30 30 31 31 32 32 33 33 33 32 32 32
8 8 7 6 6 6 7 8 9 10 11 12 13 13 14 15 15 16 16 17 18 18 19 19 19 19 19 20 20 21 21 22 23 23 24 24 25 25 25 25 26 26 25 25 25 25 25 26 27 27 28 29 29 29 30 30 30 30 31 31 32 32 33 33 33 33 33 33 33
8 7 7 6 6 7 8 8 9 10 11 12 13 13 14 15 16 16 16 17 17 18 19 19 19 19 20 20 21 21 22 23 23 24 24 25 25 25 25 25 25 25 25 25 25 25 26 27 27 28 28 29 29 30 30 30 31 31 31 31 32 33 33 33 33 33 33 33 33
8 7 7 7 7 7 8 9 10 10 11 13 14 14 15 16 16 16 16 17 17 18 18 19 19 20 20 21 21 21 22 22 23 23 24 24 24 24 25 25 25 25 26 26 26 26 27 27 27 28 28 29 30 30 30 31 31 31 32 32 33 33 33 33 33 33 33 33 33
8 7 7 7 8 8 9 9 10 12 13 14 15 15 16 16 16 16 16 17 17 18 19 19 20 21 21 21 21 21 22 22 22 23 23 24 24 25 25 25 26 26 26 26 27 27 27 28 28 28 28 29 30 30 31 31 31 32 32 32 33 33 33 33 33 33 33 33 34
8 8 7 8 8 9 10 11 12 13 14 15 15 15 16 16 16 17 17 18 18 19 20 21 21 21 22 22 22 22 22 22 23 23 24 24 25 26 26 26 26 27 27 27 27 28 28 28 28 28 29 29 30 30 31 31 31 32 32 32 32 33 33 33 33 33 33 33 33
8 8 8 9 10 11 12 13 13 14 14 15 15 15 16 16 17 17 18 18 19 19 20 21 22 22 22 22 23 22 22 23 23 24 25 25 26 26 26 27 27 27 27 27 28 28 28 29 29 29 29 29 30 30 31 31 31 31 31 31 31 31 31 31 31 32 32 32 32
8 8 9 9 10 11 12 13 13 14 14 15 15 16 17 17 17 18 19 19 20 20 21 21 22 22 23 23 23 23 23 23 24 24 25 25 26 26 26 27 27 27 27 28 28 28 28 28 28 29 29 29 30 30 30 30 30 30 30 30 30 30 30 30 30 30 31 31 31
8 8 9 10 10 11 12 13 13 14 15 15 16 16 17 17 18 18 19 20 20 21 21 22 22 23 23 24 24 24 24 24 24 25 25 25 26 26 26 26 27 27 27 27 27 28 28 28 28 28 28 28 29 29 29 29 29 29 29 29 29 29 30 30 30 30 31 31 31
8 8 9 10 11 11 12 13 14 14 15 16 16 17 17 18 18 19 19 20 20 21 21 22 23 23 23 24 24 25 25 25 25 25 25 25 25 25 25 25 26 26 27 27 27 27 27 27 27 27 27 27 27 27 27 27 27 28 29 29 29 29 30 30 30 31 31 32 32
7 8 9 10 11 12 12 13 14 15 16 17 17 18 18 19 19 20 20 20 21 21 22 22 23 23 23 24 24 25 25 25 26 26 25 25 25 25 25 25 26 26 27 27 26 26 25 25 25 25 25 24 25 25 25 26 26 26 27 28 28 29 29 29 30 30 31 31 32
7 8 9 10 11 12 13 14 15 16 17 17 18 18 19 19 20 20 20 21 21 22 22 22 22 23 24 24 24 25 25 25 25 25 25 25 25 25 25 25 25 25 26 25 25 24 24 24 24 24 24 24 24 24 25 25 25 25 26 27 28 28 28 29 29 29 30 30 31
7 8 9 10 11 13 14 15 16 17 18 18 19 19 20 20 20 20 21 21 21 22 23 23 24 24 24 24 24 24 24 24 24 25 25 25 25 25 25 25 25 25 25 24 24 24 24 24 24 24 24 25 25 25 25 26 26 26 27 28 28 28 29 29 30 30 30 30 30
8 9 10 11 12 13 15 16 16 17 18 19 19 20 20 21 21 21 22 22 23 23 23 23 24 24 23 23 24 24 23 23 23 24 24 25 26 26 26 25 25 24 24 24 25 25 26 26 26 26 26 26 26 27 27 27 27 27 28 28 29 29 29 30 30 31 31 31 31
8 9 10 12 13 14 15 16 17 18 18 19 20 20 21 21 21 22 22 23 23 24 24 23 23 23 23 23 23 23 23 23 23 24 25 25 26 26 26 26 25 24 24 25 25 26 27 27 28 28 28 28 28 28 28 28 28 29 29 29 30 30 30 31 31 32 32 31 31
9 10 11 12 13 15 16 17 17 18 19 20 20 21 21 22 22 22 23 23 23 23 23 22 22 22 21 22 22 23 23 24 24 25 25 25 25 26 26 25 25 25 25 26 27 28 28 29 29 30 30 30 29 29 29 29 29 29 29 29 29 30 30 31 31 31 31 31 31
9 10 11 13 14 15 16 17 18 18 19 20 21 21 22 22 22 23 23 23 23 23 22 22 22 22 22 23 24 24 25 25 25 24 24 25 25 25 26 26 26 26 27 28 28 29 30 30 30 31 31 31 30 29 28 28 28 28 28 28 28 29 29 29 30 30 30 30 30
9 10 12 13 14 15 16 17 18 19 20 20 21 21 22 22 22 23 23 23 23 23 23 22 22 23 23 24 25 25 25 24 24 24 24 24 25 26 26 26 26 27 28 28 29 30 30 30 31 31 31 32 31 30 29 29 28 28 28 28 29 29 30 30 30 30 30 30 30
10 11 12 14 15 16 17 18 18 19 20 20 20 21 21 22 22 23 23 23 23 23 23 23 23 24 24 25 25 25 25 25 25 24 24 25 26 26 27 27 27 28 29 29 29 30 30 31 31 31 32 32 32 30 29 29 29 29 29 29 30 30 31 31 31 32 32 31 31
10 11 13 14 15 16 17 18 19 19 20 20 20 21 21 22 22 23 23 23 23 23 23 24 24 24 25 25 25 25 25 25 25 25 25 25 26 27 28 28 28 28 29 29 29 30 30 30 31 32 32 33 33 32 32 31 31 31 31 31 32 32 32 32 32 32 33 33 32
10 12 13 15 16 17 18 19 19 19 19 20 20 21 21 22 23 23 23 23 23 22 23 23 24 24 24 24 25 25 25 25 24 24 25 25 26 27 27 28 28 28 28 29 29 30 31 31 32 33 33 34 34 33 32 32 31 30 30 31 31 32 32 33 33 33 33 33 33
11 12 14 15 16 17 18 19 19 19 19 20 20 21 21 22 22 23 23 23 22 22 23 23 23 23 24 24 24 25 25 25 24 25 25 26 26 27 27 27 27 28 28 29 30 31 32 32 33 33 34 35 34 33 31 30 30 29 30 30 31 31 31 32 33 34 34 34 34
11 13 14 16 17 18 18 19 19 19 19 20 21 21 21 22 22 22 23 23 23 23 23 23 23 23 23 24 24 24 24 25 25 25 25 26 26 27 28 28 29 29 30 30 31 32 32 33 33 34 34 34 33 31 30 29 28 29 29 30 30 31 32 32 32 33 34 34 34
12 13 14 16 17 18 18 18 19 19 20 20 21 21 21 22 22 22 23 23 23 23 24 24 23 23 23 24 24 24 24 25 25 26 26 26 26 27 28 29 30 30 30 31 31 32 32 33 33 34 34 33 31 29 28 27 27 28 28 29 30 31 31 32 32 32 33 33 34
12 13 14 15 16 17 18 18 19 19 19 20 20 21 21 22 23 23 22 22 23 23 24 24 24 23 23 23 24 24 24 25 25 26 26 26 26 27 28 29 30 30 30 31 31 32 32 33 33 34 33 32 30 28 28 27 27 27 28 29 30 30 31 31 31 31 32 33 33
13 14 14 15 16 17 18 18 18 19 19 20 21 21 22 22 23 23 22 22 22 23 24 24 24 23 23 24 24 25 25 25 25 25 26 27 27 27 28 29 30 30 31 31 31 32 33 33 34 34 33 32 30 29 28 27 27 27 27 28 28 29 29 29 29 29 30 31 32
13 14 14 15 16 17 17 18 18 19 19 20 21 22 22 22 22 22 22 22 22 23 23 23 24 24 24 24 24 25 26 26 25 25 26 26 27 27 27 28 30 30 31 31 32 32 33 33 33 33 33 33 31 29 27 26 26 27 27 27 27 27 28 28 27 28 28 29 31
13 14 14 15 16 16 17 18 18 19 19 20 21 22 22 22 22 22 22 22 22 22 22 23 23 24 23 24 24 25 26 26 26 26 26 26 27 28 28 28 29 30 30 31 31 32 33 33 33 33 33 32 31 29 27 26 26 26 26 25 25 25 25 25 25 26 26 27 29
13 14 14 15 15 16 17 18 19 19 19 20 21 21 22 22 22 22 22 21 22 22 22 22 23 23 24 24 24 25 26 27 27 27 27 27 27 27 27 27 28 29 29 30 31 31 32 32 32 32 32 31 30 29 27 25 24 24 24 24 24 23 24 24 25 26 26 26 27
Wind_Direction
198 189 180 174 173 174 178 187 202 216 229 235 243 254 265 276 283 285 286 287 286 286 287 286 286 286 288 289 291 292 292 291 289 288 287 286 286 286 285 284 283 282 281 281 280 280 280 279 278 277 275 274 272 271 269 267 265 264 264 263 263 263 263 263 263 262 262 262 262
177 173 171 171 173 175 180 189 211 232 239 238 249 265 278 283 286 286 286 286 285 285 285 284 284 284 285 288 290 291 291 290 289 288 287 285 285 284 283 282 281 280 279 278 277 277 277 277 276 275 274 273 272 271 269 267 264 263 262 261 261 261 261 261 261 261 261 261 261
168 168 168 168 170 171 174 181 197 215 224 234 258 280 288 286 285 285 284 283 283 283 283 284 283 283 285 287 289 290 290 289 288 287 286 285 284 283 282 281 281 279 278 276 275 274 273 274 274 273 272 271 270 270 269 268 266 264 263 262 261 260 260 259 259 259 259 259 259
167 165 162 162 165 169 175 187 210 240 262 274 285 289 288 284 283 282 282 283 284 283 283 284 285 285 285 286 287 287 288 287 287 286 285 284 283 282 281 280 280 279 277 276 274 272 271 271 271 271 270 269 268 268 267 267 266 265 263 263 262 261 260 259 259 258 258 258 257
166 165 167 171 176 182 194 217 254 281 292 290 291 288 284 282 282 282 283 284 285 285 286 286 286 285 284 284 285 286 286 286 285 285 284 283 282 281 280 279 278 278 276 275 273 271 270 269 269 268 267 267 266 265 264 264 264 263 263 262 261 261 260 260 259 258 257 257 256
167 175 189 200 207 216 239 269 284 289 289 288 288 285 283 282 283 284 286 287 288 289 289 288 287 284 284 284 285 285 286 286 285 284 283 282 281 280 279 278 276 275 273 272 271 269 268 267 266 265 264 264 263 262 262 262 262 262 261 261 260 260 259 259 259 258 258 257 256
170 176 185 201 223 248 273 286 291 291 290 287 284 283 283 284 285 287 288 289 290 290 290 288 287 285 285 285 285 285 285 285 285 284 282 281 280 279 278 276 274 272 271 269 268 267 266 264 263 263 262 262 262 261 260 259 259 259 260 260 259 259 259 259 258 258 258 257 257
169 166 160 166 224 270 284 291 294 292 288 285 283 283 284 286 287 288 289 289 289 289 288 287 286 286 286 285 285 284 284 284 283 282 281 279 278 277 276 275 273 271 269 268 267 266 265 263 262 261 261 260 260 260 260 258 258 258 258 258 259 259 258 258 258 257 257 257 257
152 144 137 146 276 289 291 292 289 285 283 282 282 283 284 285 286 286 286 286 286 286 286 286 286 285 285 284 284 283 282 281 280 279 278 276 275 274 273 272 271 270 269 268 267 266 265 263 262 261 260 259 259 259 259 258 258 257 257 258 259 259 258 258 257 257 256 256 256
127 112 91 319 299 294 291 287 283 281 280 281 282 282 283 283 282 282 283 283 284 284 285 284 285 285 284 283 282 281 280 279 277 276 275 273 272 271 271 270 270 270 269 269 268 267 266 265 264 262 261 260 260 260 260 259 258 257 257 257 258 258 258 257 257 257 257 256 256
103 304 293 289 286 284 282 280 279 279 280 281 281 282 282 282 282 283 284 284 285 285 285 285 285 284 284 283 282 280 279 278 276 275 275 274 273 273 272 272 271 271 271 270 270 269 268 266 265 264 262 262 262 262 261 260 259 258 257 257 257 257 257 257 257 257 257 257 256
292 289 284 278 275 274 275 276 278 279 280 281 282 283 284 284 285 286 287 287 286 286 286 286 285 284 283 282 281 280 279 278 277 276 276 275 275 274 274 273 272 272 271 271 270 269 268 266 265 264 264 263 263 262 262 261 260 259 259 258 257 257 257 257 256 256 256 257 257
286 281 274 266 265 268 271 275 277 278 280 282 284 285 286 287 289 289 289 288 288 287 287 286 285 284 282 281 280 280 279 278 278 277 276 276 275 275 274 274 273 272 272 271 270 268 267 266 265 265 264 264 264 263 262 262 262 261 260 259 258 258 257 257 256 256 256 257 257
274 266 259 255 259 264 269 273 276 278 281 284 286 288 289 291 291 291 290 289 288 287 287 287 285 283 282 281 280 280 279 279 278 277 277 276 275 275 275 274 274 273 272 271 270 268 267 266 266 266 265 265 265 264 263 263 262 262 261 260 260 259 258 258 258 257 257 257 257
254 249 247 250 255 261 268 273 277 280 284 287 289 291 293 293 292 291 290 288 287 287 286 286 285 284 282 281 280 280 279 279 278 278 277 277 276 276 275 275 274 274 273 272 271 270 268 268 267 267 267 266 266 265 265 264 263 262 261 261 260 260 260 260 259 259 258 258 257
239 239 242 247 254 262 270 276 280 284 287 290 293 294 294 294 293 291 290 288 287 286 285 284 284 284 284 282 281 280 280 280 279 279 278 278 278 277 277 276 276 276 275 275 274 272 271 269 269 268 268 267 267 266 266 265 264 263 262 261 261 261 261 260 260 260 259 258 258
233 237 243 249 257 266 274 281 286 290 292 294 295 295 294 293 292 291 289 287 287 286 285 284 284 284 284 284 283 282 281 281 280 280 280 280 280 280 279 279 278 278 277 277 276 274 273 272 271 270 269 268 268 267 267 266 265 264 263 263 262 261 261 261 260 260 260 259 258
235 241 247 255 267 276 283 289 292 294 295 295 295 294 293 292 291 290 289 288 287 286 286 286 285 285 284 284 284 283 282 282 282 281 281 281 282 282 281 281 280 280 279 278 277 276 275 274 273 272 271 270 269 268 267 267 266 265 265 264 263 262 262 261 261 260 260 259 259
241 249 259 270 280 288 293 295 296 296 296 295 294 293 292 291 291 290 289 289 288 287 287 287 286 286 285 284 284 283 282 283 283 282 282 282 283 283 283 282 282 282 281 280 279 277 277 276 275 274 272 271 270 270 269 268 267 267 266 265 265 264 263 263 262 262 261 260 260
250 262 274 284 291 295 297 298 298 297 296 295 294 293 292 292 291 290 290 289 289 289 288 288 287 287 286 286 285 285 284 284 284 284 284 284 284 284 283 283 283 283 282 281 280 279 278 277 276 275 274 273 272 272 271 270 270 269 269 268 268 267 266 265 265 264 263 263 262
262 276 286 293 296 298 299 299 298 297 296 296 295 294 293 292 291 290 290 290 290 290 290 289 288 288 288 288 287 287 287 286 286 286 285 285 284 284 284 284 284 283 283 282 281 280 279 278 278 277 276 275 275 274 274 273 273 272 271 270 270 269 268 267 266 265 265 264 263
275 287 294 298 299 299 299 299 299 298 298 298 297 296 295 294 293 292 291 291 291 291 291 290 290 289 289 289 289 289 289 288 287 287 286 285 284 284 285 285 284 283 283 282 282 281 280 280 279 278 278 277 276 275 274 274 273 272 271 270 269 268 267 266 265 264 263 262 262
287 295 299 300 300 300 300 301 301 301 301 301 300 299 297 296 294 294 293 293 292 292 292 291 291 291 290 290 290 290 289 289 288 287 286 285 285 285 285 285 285 284 284 283 283 282 282 282 281 280 279 278 277 276 275 274 273 272 271 270 269 268 267 265 264 262 261 261 260
294 299 301 301 302 302 303 303 304 304 304 303 302 301 299 298 297 296 296 295 293 293 293 292 291 292 291 290 290 289 289 288 288 288 288 287 286 286 286 286 286 285 284 284 283 282 282 282 282 282 281 280 279 277 276 275 274 273 272 271 271 270 268 267 265 263 261 260 259
299 301 302 302 303 304 306 306 307 306 306 305 303 302 301 300 299 299 298 296 295 294 294 293 293 292 291 290 291 289 288 287 288 288 288 289 289 288 288 288 287 286 285 284 283 282 281 281 280 280 280 279 279 277 276 275 273 272 271 271 271 270 270 269 267 265 263 261 260
301 302 303 304 306 307 308 308 308 307 306 305 304 303 303 302 302 301 300 298 297 296 295 294 294 293 292 291 290 290 288 287 288 288 289 290 290 290 289 289 287 286 285 284 283 282 281 280 278 278 277 277 277 277 276 275 273 272 271 270 270 269 269 268 267 266 264 263 262
303 304 305 306 308 309 309 309 308 307 306 306 305 305 304 304 303 302 301 299 298 298 297 294 294 293 292 291 291 290 289 290 290 289 289 289 290 290 289 289 288 286 285 284 284 283 282 281 279 278 277 276 275 275 275 274 274 273 272 270 269 268 267 267 267 266 265 264 262
305 305 306 308 308 309 309 309 308 307 307 307 306 306 305 304 303 302 301 300 299 298 297 295 295 294 293 293 292 292 291 291 291 291 290 289 289 289 290 289 288 287 286 285 285 284 283 282 281 279 278 276 275 275 274 274 274 274 272 270 269 268 266 266 266 265 265 264 262
305 306 308 308 308 308 309 309 308 308 308 307 307 306 305 304 303 301 301 300 299 298 297 297 297 296 295 294 294 294 293 292 291 291 290 290 290 290 291 290 289 288 287 286 285 285 284 283 282 281 280 278 277 275 274 274 273 272 271 270 269 268 267 266 265 264 264 263 262
306 307 308 308 308 308 308 308 308 308 308 307 306 305 304 303 302 302 301 300 299 299 298 298 297 296 295 294 294 294 293 293 292 292 292 292 292 292 292 291 290 289 288 287 286 286 285 285 284 283 282 281 279 277 275 274 273 272 271 270 268 268 267 266 265 264 263 263 262
307 308 309 308 308 308 308 308 308 308 307 306 305 304 303 302 302 302 301 301 300 299 299 298 297 296 295 295 295 294 294 294 294 294 293 293 294 294 293 292 291 290 289 288 288 287 287 286 286 285 284 283 281 279 276 275 274 272 271 269 268 267 266 266 265 264 263 262 261
308 309 309 309 308 308 308 308 308 307 306 305 304 303 302 301 301 302 302 302 301 300 300 300 299 298 297 297 296 296 295 295 295 295 295 295 295 295 294 293 291 290 289 289 289 288 288 287 287 286 285 285 283 281 279 277 275 273 271 269 268 266 265 264 264 263 262 261 260
308 309 309 309 308 308 308 308 307 306 305 304 303 302 302 301 302 302 302 302 302 301 300 300 300 299 299 298 298 297 297 296 295 295 296 296 295 295 294 293 292 290 290 290 290 290 289 289 288 288 287 287 286 284 281 279 277 274 271 270 268 266 264 263 262 262 261 260 259
308 309 309 308 308 308 308 307 307 306 304 304 303 302 302 302 302 303 303 303 303 302 301 300 299 299 298 298 298 297 297 297 296 296 296 296 295 295 293 293 292 291 291 291 291 291 291 290 290 289 289 289 288 286 283 280 278 275 273 271 269 267 265 264 262 262 261 260 259
309 308 308 307 306 306 306 306 306 305 304 304 303 303 303 303 303 303 304 304 304 303 302 301 300 299 298 298 297 297 297 297 297 297 297 296 296 295 294 293 292 292 292 292 292 292 292 292 291 291 291 290 289 287 284 282 279 276 274 272 270 269 268 265 263 262 261 260 259
309 307 305 304 304 304 305 305 305 305 304 303 303 303 304 304 304 305 305 306 305 304 303 302 301 300 300 299 299 298 298 298 298 298 297 297 296 295 294 294 293 293 294 293 293 293 293 293 292 292 292 291 290 288 285 283 280 278 276 274 273 271 270 269 266 263 262 261 259
309 306 304 302 302 303 304 305 305 304 303 303 304 304 304 306 306 306 307 307 306 305 304 303 302 301 301 300 300 299 298 298 298 298 297 297 296 295 295 295 295 295 295 294 294 293 293 294 293 293 293 292 290 288 286 284 282 280 278 276 275 274 273 271 268 265 263 262 259
308 306 303 302 302 303 304 304 304 303 303 303 304 305 306 307 307 308 308 308 307 306 304 303 302 301 301 301 300 299 298 298 298 297 297 297 296 295 295 295 295 295 295 295 294 294 294 294 294 294 293 292 290 288 287 284 282 281 279 277 276 276 275 273 271 268 265 261 259
307 305 303 302 302 303 303 303 302 302 302 304 305 306 307 307 307 307 307 307 306 304 303 302 302 301 301 301 301 300 299 298 298 297 296 296 295 295 294 293 293 294 294 294 295 295 295 294 294 294 294 293 291 289 287 285 284 283 282 281 280 278 277 277 274 272 269 265 263
304 303 303 302 302 302 302 302 302 302 302 304 305 306 307 307 307 307 306 305 304 304 303 302 301 301 301 301 301 300 299 299 299 298 297 296 296 295 294 292 292 293 293 293 294 294 294 294 294 295 295 294 292 291 290 288 288 287 287 286 286 285 284 283 281 279 277 274 271
302 302 301 301 301 302 302 302 302 303 303 304 305 306 307 307 306 306 306 305 305 304 303 302 301 301 301 302 301 300 300 300 300 299 298 297 296 295 294 293 293 293 293 293 293 294 294 294 294 295 295 295 295 295 295 295 294 293 292 292 292 291 291 290 288 286 283 280 277
Height
794 795 795 796 796 797 798 798 798 799 799 799 800 800 800 799 799 799 799 799 798 798 797 797 797 796 796 796 795 795 795 794 794 793 793 792 792 791 791 790 790 789 789 788 788 787 787 786 785 785 783 782 781 780 780 779 779 778 777 776 775 774 774 772 771 770 770 769 768
793 794 794 795 795 796 797 797 797 798 798 798 798 798 798 798 798 798 798 798 797 797 796 796 795 795 795 795 794 794 793 793 792 792 791 790 790 789 789 788 787 787 786 786 785 785 785 784 783 782 781 780 779 778 777 776 776 775 774 773 773 772 771 770 768 767 767 766 765
793 793 794 794 795 795 796 796 796 797 797 797 797 797 797 797 797 797 797 796 796 796 795 795 794 794 794 793 793 792 792 791 790 790 789 788 788 787 786 786 785 785 784 784 783 783 782 782 781 780 779 778 777 776 775 774 774 773 772 770 770 769 768 766 765 765 764 763 762
792 792 793 794 794 795 795 795 795 796 796 796 796 796 796 796 796 796 796 795 795 795 794 794 793 792 792 791 791 790 790 789 789 788 787 786 785 785 784 784 783 782 782 781 781 780 780 780 779 778 777 776 775 774 773 772 771 770 769 768 767 766 765 764 763 762 761 760 759
791 791 792 792 793 793 794 794 794 795 795 795 795 795 795 795 795 795 795 794 794 793 793 792 792 791 790 790 789 789 788 787 786 785 785 784 783 782 782 781 780 780 780 779 779 778 778 778 777 776 775 774 773 771 770 770 769 768 767 765 765 763 762 761 760 759 758 757 756
790 790 791 791 792 792 792 793 793 793 794 794 795 795 795 795 794 794 794 793 793 792 791 791 790 790 789 788 787 786 786 785 784 783 782 781 781 780 780 779 778 778 777 777 776 776 776 775 775 773 772 771 770 769 768 767 766 765 764 763 762 760 760 758 757 756 755 754 753
790 790 790 790 790 791 791 792 792 793 793 793 794 794 794 794 793 793 792 792 791 791 790 790 789 788 787 786 785 785 784 783 782 781 780 780 779 778 777 777 776 776 775 775 774 774 773 773 772 771 769 768 767 765 765 764 763 762 761 760 759 758 757 755 755 754 753 751 751
789 790 790 790 790 790 791 791 792 792 793 793 793 793 792 792 792 791 791 790 790 789 788 788 787 786 785 784 783 782 781 781 780 779 778 778 777 776 775 775 774 774 773 772 772 771 770 770 769 768 766 765 764 762 761 761 760 759 758 757 756 755 754 753 752 751 750 749 748
789 789 789 790 790 790 790 791 792 792 792 792 792 791 791 791 790 790 790 789 788 787 787 786 785 784 783 782 781 780 780 779 778 777 776 776 775 774 773 773 772 771 770 770 769 768 768 767 766 765 763 762 760 759 758 758 757 756 755 754 753 752 751 750 749 749 747 746 746
789 789 789 790 790 790 790 791 791 791 791 791 790 790 790 789 789 788 788 787 786 785 785 784 783 782 781 780 780 779 778 777 776 775 774 774 773 772 771 770 770 769 768 767 766 765 765 764 762 761 760 759 757 756 755 755 754 753 752 751 750 749 748 747 746 745 745 744 743
789 789 789 790 790 790 790 790 790 790 790 790 789 789 788 788 787 787 786 785 785 784 783 782 781 780 779 778 778 777 776 775 774 773 772 771 770 770 769 768 767 766 765 764 764 763 762 760 759 758 756 755 755 753 752 751 750 750 748 747 747 746 745 744 743 743 742 741 740
788 789 789 789 789 789 789 789 789 789 789 788 788 787 787 786 785 785 784 784 783 782 781 780 779 778 777 776 775 775 774 773 772 771 770 769 768 767 766 765 764 763 762 761 761 760 759 757 756 755 753 752 751 750 749 748 747 746 745 744 743 742 741 740 740 740 739 738 737
788 789 789 789 789 788 788 788 788 788 787 787 786 786 785 785 784 783 783 782 781 780 779 778 777 777 776 775 774 773 772 771 770 769 768 766 765 765 763 762 761 760 759 758 758 757 756 754 753 751 750 749 748 747 746 745 744 743 742 740 740 739 738 736 736 736 735 735 734
788 788 788 788 788 787 787 787 787 786 786 785 785 784 784 783 782 781 781 780 779 778 777 776 775 775 774 773 772 770 770 769 767 766 765 764 763 762 760 759 758 757 756 755 754 753 752 751 750 748 747 746 745 744 743 742 741 740 739 737 736 735 734 733 733 732 732 731 731
787 787 787 787 787 786 786 786 785 785 784 784 783 783 782 781 780 780 779 778 777 776 775 775 774 772 771 770 770 768 767 766 765 764 762 761 760 759 757 756 755 754 753 752 751 750 749 748 746 745 744 743 741 740 740 739 738 736 735 734 733 732 731 730 730 729 729 728 727
786 786 786 785 785 785 785 785 784 784 783 782 782 781 780 780 779 778 777 776 775 775 774 773 771 770 769 768 767 766 765 763 762 761 759 758 756 755 754 753 752 751 750 749 747 746 745 744 743 742 741 740 738 737 736 735 734 733 732 731 730 729 728 727 727 726 726 725 725
785 785 785 784 784 784 784 783 783 782 781 781 780 780 779 778 777 776 775 774 773 772 771 770 769 768 767 765 765 763 762 760 759 758 756 755 754 752 751 750 749 748 746 745 744 743 742 741 740 739 738 736 735 734 733 732 731 730 729 728 727 726 725 725 724 724 723 722 721
784 783 783 783 783 782 782 781 781 780 780 779 778 778 777 776 775 774 773 772 771 770 769 768 767 766 765 763 762 760 759 758 756 755 754 752 751 750 748 747 746 745 744 742 741 740 739 738 737 736 735 733 732 731 730 729 728 726 725 725 724 723 722 722 721 721 720 719 718
782 782 782 781 781 781 780 780 779 779 778 777 777 776 775 774 773 772 771 770 769 768 767 765 764 763 762 760 759 758 756 755 753 752 750 749 748 747 745 744 743 741 740 739 738 737 735 734 733 732 731 730 729 728 726 725 724 723 722 721 721 720 720 719 718 718 717 716 716
781 780 780 780 780 779 779 778 778 777 776 775 775 774 773 772 771 770 769 767 766 765 765 763 762 760 759 758 756 755 754 752 750 749 747 746 745 744 742 741 740 739 737 736 735 734 732 731 730 729 728 727 725 724 723 722 721 720 720 719 718 717 717 716 716 715 715 714 713
779 779 779 778 778 778 777 777 776 775 775 774 773 772 770 770 769 768 766 765 764 763 762 761 759 758 756 755 754 752 750 749 748 746 745 743 742 740 739 738 737 735 734 733 732 730 729 728 727 726 725 724 723 722 721 720 719 718 717 716 715 715 714 714 713 713 712 711 711
778 777 777 777 777 776 776 775 775 774 773 772 770 770 768 767 766 765 764 763 762 761 760 758 757 755 754 752 751 749 748 746 745 743 742 740 739 738 736 735 734 732 731 730 729 727 726 725 724 723 722 721 720 719 718 718 717 715 715 714 713 712 712 711 711 710 709 709 708
776 776 776 776 775 775 774 774 773 772 770 770 769 767 766 765 764 763 762 761 760 758 757 755 754 752 751 750 748 746 745 743 742 740 739 738 736 735 734 732 731 730 728 727 725 725 724 722 721 721 720 719 718 717 716 715 714 713 712 711 710 709 709 708 707 707 706 705 705
775 775 775 774 774 773 773 772 771 770 769 767 766 765 764 763 762 761 760 759 757 756 754 753 751 750 748 746 745 744 742 740 739 737 736 735 734 732 731 730 728 727 725 724 723 722 721 720 720 719 718 717 716 715 714 713 712 711 710 708 707 706 705 705 704 703 702 702 701
774 774 773 773 772 771 771 770 769 768 767 765 765 764 762 761 760 759 757 756 755 753 752 750 748 747 745 744 742 741 739 738 736 734 733 731 730 729 728 727 725 724 722 721 720 720 719 719 718 717 716 715 714 712 711 710 709 708 707 706 705 704 702 701 700 700 699 698 698
772 772 771 771 770 770 769 768 767 766 765 764 763 761 760 759 758 756 755 754 752 750 749 747 745 744 742 741 739 738 736 735 734 732 730 729 727 726 725 724 723 721 720 718 717 717 716 716 715 715 714 713 711 710 709 707 706 705 704 703 702 701 700 698 697 696 695 695 694
771 770 770 769 769 768 767 766 765 764 763 762 761 760 758 757 756 754 753 751 750 748 746 745 743 741 740 738 737 735 734 732 731 730 728 726 725 724 722 721 720 719 717 716 715 714 714 713 712 712 711 710 709 707 706 704 703 702 701 700 699 697 696 695 693 692 692 691 690
769 769 768 767 767 766 765 765 764 762 761 760 759 758 756 755 754 752 750 749 747 745 744 742 740 739 737 735 734 732 731 730 729 727 725 724 722 721 720 718 717 716 715 713 712 712 711 710 709 709 708 707 706 705 703 701 700 699 698 696 695 694 692 691 690 689 688 688 687
767 767 766 766 765 765 764 763 762 761 760 758 757 756 754 753 751 750 748 746 745 743 741 740 738 736 735 733 731 730 729 727 726 725 723 721 720 718 717 716 715 713 712 711 710 709 708 707 706 705 705 704 703 702 700 699 697 695 694 693 691 690 689 688 686 685 685 684 683
766 765 765 764 764 763 762 761 760 759 758 756 755 754 752 751 749 747 746 744 742 741 739 738 736 734 733 731 729 728 726 725 723 722 720 719 717 716 715 713 712 710 709 708 707 706 705 704 703 702 701 700 700 699 697 695 694 692 691 689 688 686 685 684 683 682 681 680 680
764 764 763 763 762 761 760 760 758 757 756 755 753 752 750 749 747 745 744 742 740 738 737 735 734 732 730 729 727 725 724 722 721 720 718 717 715 714 712 711 710 708 706 705 704 703 702 701 700 699 698 697 696 695 694 692 690 689 687 685 684 683 682 680 680 678 677 677 676
763 762 762 761 760 760 759 758 757 755 754 753 751 750 748 747 745 743 741 740 738 736 734 733 731 730 728 726 725 723 721 720 719 717 716 715 713 711 710 708 707 705 704 702 701 700 699 698 697 696 695 694 692 691 690 688 687 685 684 682 680 679 678 677 675 675 674 673 673
761 761 760 760 759 758 757 756 755 754 752 751 750 748 746 745 743 741 739 737 736 734 732 730 729 727 725 724 722 720 719 718 716 715 714 713 711 710 708 706 704 702 701 700 699 697 696 695 694 692 691 690 689 687 686 684 683 681 679 678 676 675 674 673 672 670 670 669 669
760 760 759 758 757 756 755 754 753 752 750 749 747 746 744 743 740 739 737 735 734 732 730 729 727 725 724 722 720 719 717 715 714 713 712 710 709 707 705 704 702 700 698 697 696 695 693 692 691 689 688 687 685 684 682 680 679 677 675 673 672 670 670 668 667 666 665 665 664
759 758 758 757 756 755 754 752 751 750 749 747 745 744 742 740 739 737 735 733 732 730 728 726 725 723 722 720 719 717 715 714 712 711 710 709 707 705 703 701 699 697 696 695 693 692 690 689 688 686 685 684 682 680 679 677 675 673 671 670 668 666 665 664 663 662 661 660 660
758 757 756 755 754 753 752 751 750 748 746 745 743 742 740 738 737 735 733 731 730 728 726 724 723 721 720 718 716 715 714 712 710 709 707 706 705 703 701 699 696 695 693 692 691 689 688 686 685 683 682 681 679 677 675 674 671 669 667 666 664 662 661 660 659 658 657 656 655
756 756 755 754 753 752 750 749 748 746 745 743 741 740 738 736 735 733 731 730 728 726 724 722 721 719 718 716 715 713 711 710 709 707 705 704 703 701 699 696 694 692 690 689 688 686 685 684 682 681 680 678 676 674 672 670 668 666 664 662 660 658 657 656 655 653 652 651 650
755 755 754 752 751 750 749 747 746 745 743 741 740 738 736 735 733 731 730 728 726 724 722 720 719 717 716 715 713 711 710 708 707 705 704 702 701 699 697 695 692 690 688 687 685 684 682 681 679 678 677 675 674 672 670 667 665 663 660 658 656 655 653 652 650 649 647 646 645
754 753 752 751 750 749 747 746 745 743 741 740 738 736 735 733 731 730 728 726 725 723 721 719 717 715 714 713 711 709 707 706 705 704 702 700 699 697 695 693 690 688 686 684 683 681 680 678 677 675 674 673 671 669 667 665 662 660 657 655 653 651 650 648 647 645 644 642 641
753 752 751 750 749 747 746 745 743 741 740 738 736 735 733 731 730 728 726 725 723 721 720 718 716 714 713 711 710 707 705 704 703 701 700 698 696 695 693 691 688 686 684 682 680 679 677 676 674 673 672 670 669 667 664 662 659 657 654 652 650 648 646 645 644 642 641 639 638
751 750 750 748 747 746 745 743 741 740 738 737 735 733 731 730 728 726 725 723 721 720 718 716 714 712 711 710 708 706 704 702 700 699 698 696 694 692 690 689 686 684 682 680 678 676 675 673 672 671 670 668 667 665 662 660 657 655 652 650 649 647 645 643 641 640 638 637 635